Starlink 31805

operational
NORAD ID: 59745 Int'l Des: 2024-090 Owner: SPXS Country: US Constellation: starlink
LEOCIRCULAR

关于 Starlink 31805

正在加载描述...

实时位置

正在加载3D地球...

即将过境

高度历史

Altitude vs Time

uPlot chart will show altitude changes over time

两行轨道根数

1 59745U 24090R 25351.23309005 .00001348 00000-0 58477-4 0 9994
2 59745 43.0016 288.8109 0000903 283.1651 76.9100 15.27585442 90836
Epoch: Dec 17, 2025 • Age: 14 hours

当前状态

高度 490.3 km
速度 7.62 km/s
星下点 -28.76°S, 127.88°E
发射日期 May 13, 2024
运行时间 1.5 years
类型 internet

技术详情

分类 Payload
质量 730.00 kg
干质量 700.00 kg
总质量 730.00 kg
长度 0.30 m
直径 4.10 m
跨度 29.00 m
形状 Box + pan
制造商 SPXS
平台类型 Starlink V2M
阶段状态 In Orbit
所有者/国家 SPXS/US

大型星座

Loading constellations...